AMC-3

Last updated on Sun Apr 12 2026 00:02:50 GMT+0000 (Coordinated Universal Time)

1 24936U 97050A 26100.79347481 -.00000256 00000+0 00000+0 0 9999 2 24936 7.9808 64.8405 0003225 318.4535 29.3772 1.00271241 51752
UTC large
Height (km)
Speed (km/s)
/
Latitude / Longitude
Inclination (degrees)
Orbital Period (minutes)
Azimuth
Elevation
Range (km)
Doppler Factor

Next 0 passes for location: London (51.5072 / 0.1276)

Sorry there are no passes over London.
AMC-3